When you browse on this site, cookies collect data to enhance your experience and personalize the content and advertising you see.
Visit our Privacy Policy to learn more. By continuing to use the site, you agree to this use of cookies and data.
  • In Italy
  • List of Countries
  • For 7 days
  • Water Temperature
  • Satellite Maps
  • Weather Map
  • Weather Widgets
  • user-avatar
    Login

    Hourly Weather Kandi

    Today, 15 December, Saturday

    Time Temperature Precipitation Wind Pressure Humidity
    00:00 +27°C° 0 mm 1 mps 739 mmHg 18%
    01:00 +27°C° 0 mm 1 mps 739 mmHg 19%
    02:00 +26°C° 0 mm 1 mps 739 mmHg 19%
    03:00 +26°C° 0 mm 1 mps 739 mmHg 19%
    04:00 +25°C° 0 mm 1 mps 739 mmHg 19%
    05:00 +25°C° 0 mm 1 mps 739 mmHg 20%
    06:00 +24°C° 0 mm 1 mps 740 mmHg 20%
    07:00 +27°C° 0 mm 2 mps 740 mmHg 17%
    08:00 +29°C° 0 mm 2 mps 740 mmHg 15%
    09:00 +32°C° 0 mm 2 mps 741 mmHg 12%
    10:00 +35°C° 0 mm 2 mps 740 mmHg 11%
    11:00 +37°C° 0 mm 3 mps 740 mmHg 10%
    12:00 +40°C° 0 mm 3 mps 740 mmHg 8%
    13:00 +40°C° 0 mm 3 mps 739 mmHg 8%
    14:00 +40°C° 0 mm 3 mps 738 mmHg 8%
    15:00 +40°C° 0 mm 3 mps 738 mmHg 8%
    16:00 +38°C° 0 mm 2 mps 738 mmHg 10%
    17:00 +36°C° 0 mm 2 mps 738 mmHg 11%
    18:00 +34°C° 0 mm 2 mps 738 mmHg 12%
    19:00 +32°C° 0 mm 2 mps 738 mmHg 13%
    20:00 +31°C° 0 mm 2 mps 739 mmHg 14%
    21:00 +30°C° 0 mm 2 mps 739 mmHg 15%
    22:00 +30°C° 0 mm 2 mps 739 mmHg 15%
    23:00 +29°C° 0 mm 2 mps 739 mmHg 16%

    Tomorrow, 16 December, Sunday

    Time Temperature Precipitation Wind Pressure Humidity
    00:00 +28°C° 0 mm 2 mps 739 mmHg 16%
    01:00 +28°C° 0 mm 2 mps 739 mmHg 16%
    02:00 +27°C° 0 mm 2 mps 738 mmHg 16%
    03:00 +27°C° 0 mm 2 mps 738 mmHg 15%
    04:00 +26°C° 0 mm 2 mps 738 mmHg 15%
    05:00 +25°C° 0 mm 2 mps 739 mmHg 15%
    06:00 +25°C° 0 mm 2 mps 739 mmHg 15%
    07:00 +27°C° 0 mm 3 mps 739 mmHg 13%
    08:00 +29°C° 0 mm 3 mps 740 mmHg 11%
    09:00 +33°C° 0 mm 4 mps 741 mmHg 10%
    10:00 +35°C° 0 mm 3 mps 740 mmHg 9%
    11:00 +37°C° 0 mm 3 mps 740 mmHg 8%
    12:00 +39°C° 0 mm 3 mps 739 mmHg 7%
    13:00 +39°C° 0 mm 3 mps 738 mmHg 7%
    14:00 +40°C° 0 mm 3 mps 738 mmHg 7%
    15:00 +40°C° 0 mm 3 mps 737 mmHg 7%
    16:00 +38°C° 0 mm 2 mps 737 mmHg 8%
    17:00 +36°C° 0 mm 2 mps 737 mmHg 10%
    18:00 +34°C° 0 mm 2 mps 737 mmHg 11%
    19:00 +32°C° 0 mm 2 mps 738 mmHg 11%
    20:00 +31°C° 0 mm 2 mps 739 mmHg 12%
    21:00 +30°C° 0 mm 2 mps 739 mmHg 12%
    22:00 +29°C° 0 mm 2 mps 739 mmHg 13%
    23:00 +29°C° 0 mm 2 mps 739 mmHg 13%

    Day after tomorrow, 17 December, Monday

    Time Temperature Precipitation Wind Pressure Humidity
    00:00 +28°C° 0 mm 2 mps 739 mmHg 14%
    01:00 +27°C° 0 mm 2 mps 738 mmHg 14%
    02:00 +27°C° 0 mm 2 mps 738 mmHg 14%
    03:00 +26°C° 0 mm 2 mps 737 mmHg 14%
    04:00 +26°C° 0 mm 3 mps 738 mmHg 14%
    05:00 +25°C° 0 mm 3 mps 738 mmHg 14%
    06:00 +25°C° 0 mm 3 mps 738 mmHg 15%
    07:00 +27°C° 0 mm 3 mps 739 mmHg 13%
    08:00 +29°C° 0 mm 4 mps 740 mmHg 12%
    09:00 +30°C° 0 mm 4 mps 740 mmHg 10%
    10:00 +33°C° 0 mm 4 mps 740 mmHg 10%
    11:00 +36°C° 0 mm 4 mps 739 mmHg 9%
    12:00 +38°C° 0 mm 3 mps 739 mmHg 8%
    13:00 +38°C° 0 mm 3 mps 738 mmHg 8%
    14:00 +39°C° 0 mm 3 mps 737 mmHg 8%
    15:00 +39°C° 0 mm 2 mps 736 mmHg 8%
    16:00 +37°C° 0 mm 2 mps 737 mmHg 9%
    17:00 +35°C° 0 mm 2 mps 737 mmHg 10%
    18:00 +32°C° 0 mm 1 mps 737 mmHg 11%
    19:00 +31°C° 0 mm 1 mps 738 mmHg 11%
    20:00 +30°C° 0 mm 2 mps 738 mmHg 12%
    21:00 +29°C° 0 mm 2 mps 739 mmHg 13%
    22:00 +29°C° 0 mm 2 mps 739 mmHg 13%
    23:00 +28°C° 0 mm 2 mps 739 mmHg 13%

    18 December, Tuesday

    Time Temperature Precipitation Wind Pressure Humidity
    00:00 +27°C° 0 mm 2 mps 738 mmHg 14%
    01:00 +27°C° 0 mm 2 mps 738 mmHg 14%
    02:00 +26°C° 0 mm 3 mps 738 mmHg 15%
    03:00 +25°C° 0 mm 3 mps 737 mmHg 15%
    04:00 +25°C° 0 mm 3 mps 738 mmHg 16%
    05:00 +24°C° 0 mm 3 mps 738 mmHg 16%
    06:00 +24°C° 0 mm 2 mps 738 mmHg 17%
    07:00 +25°C° 0 mm 3 mps 739 mmHg 15%
    08:00 +27°C° 0 mm 3 mps 740 mmHg 13%
    09:00 +29°C° 0 mm 3 mps 740 mmHg 12%
    10:00 +33°C° 0 mm 3 mps 740 mmHg 11%
    11:00 +35°C° 0 mm 3 mps 739 mmHg 9%
    12:00 +37°C° 0 mm 3 mps 739 mmHg 8%
    13:00 +38°C° 0 mm 2 mps 738 mmHg 8%
    14:00 +38°C° 0 mm 2 mps 737 mmHg 8%
    15:00 +39°C° 0 mm 2 mps 736 mmHg 8%
    16:00 +37°C° 0 mm 2 mps 737 mmHg 9%
    17:00 +35°C° 0 mm 2 mps 737 mmHg 10%
    18:00 +32°C° 0 mm 1 mps 737 mmHg 11%
    19:00 +31°C° 0 mm 2 mps 738 mmHg 11%
    20:00 +30°C° 0 mm 2 mps 738 mmHg 12%
    21:00 +29°C° 0 mm 2 mps 739 mmHg 13%
    22:00 +28°C° 0 mm 2 mps 739 mmHg 13%
    23:00 +27°C° 0 mm 2 mps 738 mmHg 14%

    19 December, Wednesday

    Time Temperature Precipitation Wind Pressure Humidity
    00:00 +27°C° 0 mm 2 mps 738 mmHg 14%
    01:00 +26°C° 0 mm 2 mps 738 mmHg 15%
    02:00 +25°C° 0 mm 2 mps 738 mmHg 15%
    03:00 +25°C° 0 mm 2 mps 738 mmHg 16%
    04:00 +24°C° 0 mm 2 mps 738 mmHg 16%
    05:00 +24°C° 0 mm 2 mps 738 mmHg 17%
    06:00 +23°C° 0 mm 2 mps 739 mmHg 17%
    07:00 +25°C° 0 mm 3 mps 739 mmHg 15%
    08:00 +27°C° 0 mm 3 mps 740 mmHg 14%
    09:00 +29°C° 0 mm 3 mps 740 mmHg 12%
    10:00 +31°C° 0 mm 3 mps 740 mmHg 11%
    11:00 +35°C° 0 mm 3 mps 739 mmHg 10%
    12:00 +37°C° 0 mm 2 mps 738 mmHg 8%
    13:00 +37°C° 0 mm 2 mps 738 mmHg 8%
    14:00 +38°C° 0 mm 2 mps 737 mmHg 8%
    15:00 +37°C° 0 mm 1 mps 736 mmHg 8%
    16:00 +35°C° 0 mm 1 mps 736 mmHg 9%
    17:00 +33°C° 0 mm 1 mps 737 mmHg 10%
    18:00 +32°C° 0 mm 1 mps 737 mmHg 11%
    19:00 +31°C° 0 mm 2 mps 737 mmHg 12%
    20:00 +29°C° 0 mm 2 mps 738 mmHg 13%
    21:00 +28°C° 0 mm 2 mps 738 mmHg 13%
    22:00 +28°C° 0 mm 2 mps 738 mmHg 14%
    23:00 +27°C° 0 mm 2 mps 738 mmHg 15%

    20 December, Thursday

    Time Temperature Precipitation Wind Pressure Humidity
    00:00 +26°C° 0 mm 2 mps 738 mmHg 15%
    01:00 +26°C° 0 mm 2 mps 737 mmHg 16%
    02:00 +25°C° 0 mm 2 mps 737 mmHg 16%
    03:00 +24°C° 0 mm 2 mps 737 mmHg 17%
    04:00 +24°C° 0 mm 2 mps 737 mmHg 17%
    05:00 +23°C° 0 mm 2 mps 738 mmHg 18%
    06:00 +23°C° 0 mm 2 mps 738 mmHg 18%
    07:00 +25°C° 0 mm 2 mps 738 mmHg 16%
    08:00 +27°C° 0 mm 3 mps 739 mmHg 15%
    09:00 +29°C° 0 mm 3 mps 739 mmHg 13%
    10:00 +31°C° 0 mm 3 mps 739 mmHg 11%
    11:00 +35°C° 0 mm 3 mps 739 mmHg 10%
    12:00 +37°C° 0 mm 2 mps 738 mmHg 9%
    13:00 +38°C° 0 mm 2 mps 737 mmHg 8%
    14:00 +38°C° 0 mm 2 mps 737 mmHg 8%
    15:00 +39°C° 0 mm 1 mps 736 mmHg 8%
    16:00 +36°C° 0 mm 1 mps 736 mmHg 9%
    17:00 +34°C° 0 mm 1 mps 736 mmHg 10%
    18:00 +32°C° 0 mm 1 mps 737 mmHg 11%
    19:00 +31°C° 0 mm 2 mps 737 mmHg 11%
    20:00 +30°C° 0 mm 2 mps 738 mmHg 12%
    21:00 +29°C° 0 mm 2 mps 738 mmHg 13%
    22:00 +28°C° 0 mm 2 mps 738 mmHg 13%
    23:00 +27°C° 0 mm 2 mps 738 mmHg 14%
    Show more